C/2017 E3 ( PanSTARRS )

Japanese version
Home page
Updated on October 7, 2017

---------------------------------------------------------------------

* Profile

Discovery Date March 7, 2017
Magnitude 19.2 mag
Discoverer Pan-STARRS 1 telescope (Haleakala)

* Pictures

* Orbital Elements

Epoch 2017 June 16.0 TT = JDT 2457920.5
T 2017 May 31.47441 TT                                  MPCW
q   5.9153634            (2000.0)            P               Q
z  -0.0008432      Peri.  333.65423     -0.77472045     -0.14246089
 +/-0.0000039      Node   220.75796     -0.26809345     -0.80837123
e   1.0049879      Incl.   70.66597     -0.57265533     +0.57117498
From 191 observations 2017 Mar. 7-July 22, mean residual 0".5.

* Magnitudes Graph

        m1 = 6.0 + 5 log d + 10.0 log r

---------------------------------------------------------------------

The orbital elements are published on M.P.E.C. 2017-T14.
The magnitudes graphs are made with Comet for Windows.

---------------------------------------------------------------------

Copyright(C) Seiichi Yoshida (comet@aerith.net). All rights reserved.